Home   Weather   Kotka   Past weeks

Flag for Finland Past Weather in Kotka, Finland — Yesterday and Last 2 Weeks

Now
36 °F

Scattered showers. Partly sunny.


Feels Like: 33 °F
Forecast: 33 / 38 °F
Wind: 3 mph from North

Location: Utti

Current Time: Apr 24, 2017 at 10:52:04 am

Latest Report: Apr 24, 2017 at 10:20 am


Visibility: N/A

Pressure: 29.71 "Hg

Humidity: 87%

Dew Point: 32 °F

Location of KotkaLocation

Past Weather in Kotka — Graph

°F

Kotka Temperature Yesterday

Maximum temperature yesterday: 45 °F (at 12:50 pm)
Minimum temperature yesterday: 30 °F (at 12:20 am)
Average temperature yesterday: 37 °F

High & Low Weather Summary for the Past Weeks

 TemperatureHumidityPressure
High54 °F (Apr 9, 3:20 pm)100% (Apr 10, 3:50 am)30.48 "Hg (Apr 10, 3:50 am)
Low19 °F (Apr 14, 5:20 am)24% (Apr 19, 4:50 pm)29.15 "Hg (Apr 22, 5:50 am)
Average35 °F70%29.69 "Hg
* Reported Apr 9 9:20 am — Apr 24 9:20 am, Kotka, Weather by CustomWeather, © 2017

Note: Actual official high and low records may vary slightly from our data, if they occured in-between our weather recording intervals... More about our weather records

Advertising

Kotka Weather History for the Previous 24 Hours

Scroll right to see more
 ConditionsComfort  
Time TempWeatherWind HumidityBarometerVisibility
9:20 am
Mon, Apr 24
36 °FSnow flurries. Broken clouds.2 mph87%29.68 "HgN/A
8:50 am36 °FSnow flurries. Partly sunny.5 mph87%29.68 "HgN/A
8:20 am34 °FScattered showers. Partly sunny.5 mph93%29.68 "HgN/A
7:50 am34 °FScattered showers. Broken clouds.6 mph93%29.68 "HgN/A
7:20 am34 °FSnow flurries. Scattered clouds.5 mph93%29.68 "HgN/A
6:50 am32 °FSnow flurries. Partly sunny.5 mph93%29.68 "Hg2 mi
6:20 am32 °FSnow showers. Broken clouds.2 mph87%29.68 "Hg1 mi
5:50 am32 °FSnow flurries. Partly sunny.3 mph87%29.65 "HgN/A
5:20 am32 °FLight snow. Overcast.3 mph87%29.65 "HgN/A
4:50 am32 °FClear.3 mph80%29.65 "Hg10 mi
4:20 am30 °FClear.2 mph86%29.65 "Hg10 mi
3:50 am32 °FClear.2 mph80%29.65 "Hg10 mi
3:20 am34 °FClear.3 mph81%29.65 "Hg10 mi
2:50 am34 °FClear.6 mph75%29.65 "Hg10 mi
2:20 am34 °FClear.6 mph75%29.65 "Hg10 mi
1:50 am32 °FClear.6 mph80%29.65 "Hg10 mi
1:20 am34 °FClear.5 mph75%29.65 "Hg10 mi
12:50 am34 °FClear.5 mph75%29.65 "Hg10 mi
12:20 am36 °FClear.6 mph70%29.62 "Hg10 mi
11:50 pm
Sun, Apr 23
36 °FClear.6 mph70%29.62 "Hg10 mi
11:20 pm36 °FClear.6 mph75%29.62 "Hg10 mi
10:50 pm37 °FClear.8 mph70%29.62 "Hg10 mi
10:20 pm37 °FClear.6 mph75%29.62 "Hg10 mi
9:50 pm37 °FClear.6 mph75%29.62 "Hg10 mi
9:20 pm37 °FClear.7 mph75%29.62 "Hg10 mi
8:50 pm39 °FPassing clouds.6 mph70%29.62 "HgN/A
8:20 pm39 °FSunny.8 mph70%29.59 "Hg10 mi
7:50 pm39 °FScattered clouds.7 mph75%29.59 "HgN/A
7:20 pm39 °FSunny.8 mph75%29.59 "Hg10 mi
6:50 pm41 °FSunny.9 mph66%29.59 "Hg10 mi
6:20 pm43 °FSunny.8 mph53%29.56 "Hg10 mi
5:50 pm43 °FPassing clouds.7 mph49%29.56 "HgN/A
5:20 pm45 °FPassing clouds.9 mph39%29.56 "HgN/A
4:50 pm45 °FSprinkles. Broken clouds.7 mph39%29.53 "HgN/A
4:20 pm45 °FScattered clouds.7 mph42%29.53 "HgN/A
3:50 pm45 °FPassing clouds.9 mph42%29.53 "HgN/A
3:20 pm45 °FPassing clouds.9 mph42%29.53 "HgN/A
2:50 pm45 °FPassing clouds.8 mph42%29.53 "HgN/A
2:20 pm45 °FPassing clouds.9 mph46%29.53 "HgN/A
1:50 pm43 °FPassing clouds.7 mph49%29.50 "HgN/A
1:20 pm41 °FPassing clouds.12 mph57%29.50 "HgN/A
12:50 pm45 °FScattered clouds.8 mph49%29.50 "HgN/A
12:20 pm43 °FScattered clouds.9 mph53%29.50 "HgN/A
11:50 am43 °FScattered clouds.10 mph53%29.50 "HgN/A
11:20 am41 °FPassing clouds.9 mph61%29.50 "HgN/A
10:50 am41 °FPassing clouds.8 mph66%29.47 "HgN/A
10:20 am39 °FPassing clouds.9 mph70%29.47 "HgN/A
Weather by CustomWeather, © 2017

See weather overviewHow to use our weather pages